Погода в Павлодаре

Поиск расширенной информации на нашем сайте:

Полезная информация:

Новости сайта



02.01.2020
Опубликован Долгосрочный прогноз погоды по городам России и ближнего зарубежья на январь 2020 года.
Карты: Прогноз на январь и февраль 2020 года, Сравнение прогнозируемой аномалии приземной температуры воздуха на январь 2020 года по разным моделям.




Погода в Павлодаре - сегодня

Время (UTC), дата Ветер
(°,м/с) 
Видим.   Явления Облачность Т
(°С)
Тd
(°С)
f(%) Тe
(°С)
Pmin
(гПа)
dP
(гПа)
Po
(мм)
O2
(г/м3)
Тmin Tmax R s Состояние
почвы
06 04.06.20 030 (СВ) 20000 м    6/5 1000 м верхняя 
[Cu hum|Ci fib]
+17.9 -0.8 28 +18  1012.4  -0.8  749  283  +12.2         
09 04.06.20 320 (СЗ) 20000 м    4/4 1000 м 
[Cu hum]
+19.4 -1.4 24 +20  1011.3  -0.9  748  282           
12 04.06.20 350 (С) 20000 м    8/6 600 м кучево-дожд., средняя 
[Cb calv|Ac trans]
+18.3 -2.4 24 +19  1010.8  -0.6  748  283           
15 04.06.20 350 (С) 20000 м    8/5 600 м кучево-дожд., средняя 
[Cb cap|Ac trans]
+14.4 +1.9 43 +14  1011.6  0.6  748  286    +19.9       
18 04.06.20 010 (С) 20000 м  {ливн. осадки}  4/1 600 м кучево-дожд., средняя 
[Cb cap|Ac trans]
+10.1 +3.5 64 +9  1012.9  749  290    +19.9       
21 04.06.20 350 (С) 20000 м    1/0 средняя 
[Ac trans]
+7.5 +2.7 72 +5  1013.8  0.8  749  293           
00 05.06.20 340 (С) 20000 м    ясно 
+7.2 +3.7 78 +6  1014.5  0.6  750  294           
03 05.06.20 340 (С) 20000 м    8/3 600 м кучево-дожд., средняя, верхняя 
[Cb cap|Ac trans|Ci fib]
+12 +2.6 53 +11  1013.9  -0.2  750  289      0.6     
06 05.06.20 010 (С) 7{16}  20000 м    8/6 600 м кучево-дожд., средняя 
[Cb cap|Ac trans]
+16.2 +2.8 41 +16  1013.9  0.1  750  285  +6.4    0.6     
09 05.06.20 010 (С) 9{15}  10 км  слаб. ливневой дождь  10/10 600 м кучево-дожд. 
[Cb cap]
+15.2 +6.3 55 +14  1015  1.1  751  285           
12 05.06.20 010 (С) 7{16}  10 км  слаб. ливневой дождь  10/10 600 м кучево-дожд. 
[Cb cap]
+14.7 +7.4 62 +14  1016.8  1.7  752  286           
15 05.06.20 350 (С) 20000 м  в посл. час ливневой дождь  10/10 600 м кучево-дожд. 
[Cb cap]
+13.4 +8.4 72 +13  1018.1  1.3  753  288    +18  0.4     
18 05.06.20 330 (СЗ) 20000 м  {ливн. осадки}  10/6 600 м кучево-дожд., средняя 
[Cb cap|Ac trans]
+12.3 +9.8 85 +14  1018.7  0.5  753  289    +18  0.4     
21 05.06.20 тихо ()   20000 м    8/0 средняя, верхняя 
[Ac trans|Ci fib]
+12.1 +10 87 +13  1019.4  0.7  754  289           
00 06.06.20 340 (С) 20000 м    10/8 600 м средняя 
[Sc|Ac trans]
+12.3 +8 75 +13  1019  -0.4  753  289           
03 06.06.20 320 (СЗ) 20000 м    3/0 средняя 
[Ac trans]
+17.6 +8 53 +18  1019.7  0.9  754  284      0.6     
06 06.06.20 340 (С) 10-16{16}  20000 м    6/6 1000 м 
[Cu hum]
+21.4 +5.2 35 +21  1019.3  -0.2  754  281  +11.3    0.6     
09 06.06.20 330 (СЗ) 7{16}  20000 м    8/5 1000 м средняя 
[Cu hum|Ac trans]
+24 +5.4 30 +24  1018  -1.1  753  278           
12 06.06.20 310 (СЗ) 8-15{18}  20000 м  гроза без осадков{ливн. осадки}  8/8 600 м кучево-дожд. 
[Cb cap]
+18.5 +7.2 48 +18  1019  0.7  754  283           
15 06.06.20 090 (В) 2{15}  20000 м  {гроза, ливн. осадки}  6/0 средняя, верхняя 
[Ac trans|Ci fib]
+17 +8.9 59 +18  1021.1  755  285    +24.8  0.6     
18 06.06.20 тихо ()   20000 м  {гроза, ливн. осадки}  ясно 
+10.8 +8.8 87 +11  1022.1  0.7  756  291    +24.8  0.6     
21 06.06.20 тихо ()   20000 м    ясно 
+9 +8.6 97 +9  1023  0.8  756  294           
00 07.06.20 030 (СВ) 20000 м    4/0 средняя, верхняя 
[Ac trans|Ci fib]
+10.8 +10 95 +13  1023.9  0.9  757  292           
03 07.06.20 330 (СЗ) 20000 м    3/0 верхняя 
[Ci fib]
+20.4 +10.2 52 +22  1023.9  0.6  757  282           
06 07.06.20 320 (СЗ) 20000 м    9/5 600 м кучево-дожд., средняя, верхняя 
[Cb cap|Ac trans|Ci fib]
+23.2 +3.6 28 +23  1023.1  -0.7  757  281  +8.7         
Время (UTC), дата Ветер
(°,м/с) 
Видим.   Явления Облачность Т
(°С)
Тd
(°С)
f(%) Тe
(°С)
Pmin
(гПа)
dP
(гПа)
Po
(мм)
O2
(г/м3)
Тmin Tmax R s Состояние
почвы

Для получения пояснительной информации подведите курсор к названию столбца.

ПОГОДА в Павлодаре - архив

Всё, что Вы хотите узнать о погоде в Павлодаре - удобно и подробно!

Выберите нужную дату (начиная с 1 января 2019* года) и нажмите кнопку "Найти".
Будут отображены архивные сводки погоды по пункту Павлодар, начиная с указанной даты.


Отображать данные в формате CSV (для использования в таблицах Excel)


Внимание! Наш архив погоды предназначен исключительно для личного некоммерческого использования в познавательных целях. Если Вам необходимы официальные справки о состоянии погоды (для производственных, юридических, коммерческих и т.п. целей), обращайтесь в органы Росгидромета.

*Примечание: данная дата относится к архиву по метеостанциям СССР (Россия, СНГ, Балтия).
Архив по метеостанциям Зарубежной Европы и Азии (кроме Китая) хранится 10 дней, по другим регионам земного шара (Китай, Африка, Америка, Австралия, Океания) - 1 день.

Павлодар - район местоположения метеостанции


Название, широта, долгота, высота метеостанции:
Павлодар 52.1°ш. 77.1°д. 125 м над ур. моря [Казахстан]

Дополнительная информация

В oтличие oт бoльшинства пoгoдных сайтoв мы публикуем пoдрoбную метеoинфoрмацию в детальнoм прoфессиoнальнoм фoрмате.

Характеристики температуры и влажнoсти вoздуха измеряются на высoте 2 м в тени вдали oт зданий и деревьев.
Скoрoсть ветра измеряется на высoте 10 м (на урoвне рoста челoвека скoрoсть ветра ниже в 1.5-2 раза). Если метеoстанция нахoдится в гoрoде или в лесу, тo скoрoсть ветра занижена на 2-4 м/с пo сравнению с oткрытым местoм. Скoрoсть ветра над акватoриями крупных рек и oзёр, а также на вершинах хoлмoв на 2-5 м/с выше, чем в oбычных услoвиях.
Атмoсфернoе давление в разных тoчках местнoсти мoжет значительнo oтличаться oт давления на метеoстанции, в зависимoсти oт услoвий рельефа (при пoдъёме на 10 м давление пoнижается примернo на 1 мм рт.ст.).